TITAN 3C TRANSTAGE DEB, 38693

Orbit data source: Space-Track

TITAN 3C TRANSTAGE DEB, 38693 is space debris in GEO originally from a launch on Thu, 26 Sep 1968 UTC launched from the Air Force Eastern Test Range (AFETR). Debris objects in space refer to the collection of defunct objects orbiting the Earth. Examples of debris include non-operational satellites, rocket bodies, and fragments generated from explosions, collisions, or faulty payload assembly.

Not visible in the next 10 days
Identifier
38693, 1968-081T
Orbit
GEO
Country
Flag of USUS
Related business
Manufacturer
Unknown
Mission
Spacecraft
Bus & Motor
Unknown
Mass
Unknown
Launch date (UTC)
1968-09-26 (57 years ago)
Launch vehicle
Unknown
Launch site
Air Force Eastern Test Range (AFETR)
Object type
Payload
Rocket body
Debris
Shape & HBR
Unknown shape, 1.1 m
Radar Cross Section
Small (<0.1 m²)

Expand to show TLE details & history
Last TLE update: 1 day ago

TLE from 1 day ago
0 TITAN 3C TRANSTAGE DEB
1 38693U 68081T   25291.98321574 -.00000169  00000-0  00000-0 0  9997
2 38693   2.4611  64.1057 0117997 201.8579 157.8616  1.02823983 46149
Epoch: 2025-10-18T23:35Z
TLE epoch observation values (Epoch: 2025-10-18T23:35:49.839Z)
Latitude
-0.00002°
Longitude
42.63519°
Altitude
35,538.53 km
Speed
3.067 km/s
True Right ascension
04h 17m 11s
True Declination
0° 00' 00"
Sunlit
Object was in daylight at epoch
Visualization orbit readout
Latitude
Unknown
Longitude
Unknown
Altitude
Unknown
Speed
Unknown
Apparent Right ascension
Unknown
Apparent Declination
Unknown
Sunlit
N/A
Visualization observer readout
Local Sidereal Time
01:42:51
Azimuth
Unknown
Elevation
Unknown
Doppler factor
Unknown
Orbital elements
Apogee altitude
35,576.323 km
Perigee altitude
34,597.77 km
Semi-major axis
41,465.183 km
Eccentricity
0.0118
Inclination
2.4611°
RAAN
64.1057°
Arg. of periapsis
201.8579°
True anomaly
158.36427°
Mean anomaly
157.8616°
Eccentric anomaly
158.11362°
Mean motion
0.25705 °/min
Orbital period
1,400.51 mins
BSTAR
0
Loading maneuver chart data...
Computing Atmospheric mass density...

Documentation

Showing up to 5 results
|